Location: Newark
(41.0400°S, 62.7845°W)
Time: 23:26:09
(UTC+00:00)

Vanguard 2 - Pass Details

Date: 04 December 2021
Orbit: 554 x 2935 km, 32.9° (Epoch: 27 January)

Event Time Altitude Azimuth Distance (km) Brightness Sun altitude
Rises 00:28:06 0° 7° (N) 6,349 11.8 -9.7°
Enters shadow 00:34:33 - 26° (NNE) 5,864 11.4 -10.6°
Exits shadow 00:48:54 - 72° (ENE) 6,043 11.5 -12.6°
Sets 00:54:55 0° 88° (E) 6,607 11.9 -13.4°
